{"data":{"norad_id":61740,"intl_designator":"2024-199F","name":"SITRO-AIS 22","alt_names":[],"object_type":"PAYLOAD","status":"ACTIVE","operator":null,"country":"CIS","launch_date":"2024-11-04","launch_site_code":"VOSTO","launch_vehicle":null,"mission":null,"orbit_class":"UNKNOWN","rcs_meters":null,"size_class":null,"mass_kg":null,"dimensions":null,"purposes":[],"wikipedia_slug":null,"has_3d_model":false,"image_url":null,"decayed_at":null,"tle_current":{"epoch":"2026-05-25T03:48:38.167776Z","epoch_age_seconds":68209,"freshness":"FRESH","line1":"1 61740U 24199F   26145.15877509  .00002623  00000+0  23952-3 0  9999","line2":"2 61740  97.3262 344.6697 0013827 135.3880 224.8457 14.95775095128473","mean_motion":14.95775095,"eccentricity":0.0013827,"inclination_deg":97.3262,"raan_deg":344.6697,"arg_perigee_deg":135.388,"mean_anomaly_deg":224.8457,"bstar":0.00023952,"rev_number":12847,"period_min":96.271157663579,"perigee_km":570.346996082,"apogee_km":589.58893956001,"semimajor_km":6958.104967821,"source":"CELESTRAK","updated_at":"2026-05-25T13:38:02.530908Z"}}}